Content
SEND FEEDBACK

Daily
Averages
Monthly
Summary
United States of America

ST. LOUIS - GATEWAY ARCH, MISSOURI


Home > North America > United States > Missouri
Elevation: 450 feet     Latitude: 38 37N     Longitude: 090 11W

WEATHER
 
SELECT A DAY
Number of Records: 185,881;   Date Range: 1/1/95 - 7/7/14
 
SHARE

PRINT THIS DATA

[ ← Previous Day ]
WEATHER ALMANAC - JUNE 24, 2013
[ Next Day → ]
[ °C ]   °F
We're sorry. There is no daily almanac available for St. Louis - Gateway Arch, Missouri on June 24, 2013.
WEATHER BY HOUR - JUNE 24, 2013
[ °C ]   °F
Local TimeTemperatureDewpointHumidityBarometerVisibilityWind DirectionWind SpeedGust SpeedPrecipitationEventsConditions
1:53 AM69.1 °F66.0 °F90 %30.03 in10.0 miSSE (160°)4.6 mphClear
2:53 AM68.0 °F66.0 °F93 %30.03 in10.0 miSouth (180°)3.5 mphClear
3:53 AM66.9 °F64.9 °F93 %30.01 in10.0 miCalmClear
4:53 AM66.9 °F64.9 °F93 %30.01 in10.0 miCalmClear
5:53 AM68.0 °F64.9 °F90 %30.03 in10.0 miSSE (160°)3.5 mphClear
6:53 AM69.1 °F66.0 °F90 %30.06 in10.0 miSSE (160°)3.5 mphClear
7:53 AM71.1 °F68.0 °F90 %30.07 in10.0 miSSE (150°)4.6 mphClear
8:53 AM75.0 °F70.0 °F84 %30.08 in10.0 miSSE (160°)4.6 mphClear
9:53 AM80.1 °F72.0 °F76 %30.07 in10.0 miSouth (190°)4.6 mphClear
10:53 AM82.9 °F73.0 °F72 %30.05 in10.0 miSSW (200°)3.5 mphClear
11:53 AM86.0 °F72.0 °F63 %30.05 in10.0 miSSW (200°)5.8 mphClear
12:53 PM88.0 °F73.0 °F61 %30.03 in10.0 miSSW (200°)6.9 mphClear
1:53 PM90.0 °F72.0 °F55 %30.00 in10.0 miWSW (240°)6.9 mph16.1 mphClear
2:53 PM89.1 °F71.1 °F55 %29.99 in10.0 miSouth (190°)9.2 mphScattered Clouds
3:53 PM91.0 °F69.1 °F48 %29.98 in10.0 miSSW (200°)10.4 mphClear
4:53 PM90.0 °F70.0 °F52 %29.97 in10.0 miSouth (190°)9.2 mph18.4 mphPartly Cloudy
5:53 PM90.0 °F69.1 °F50 %29.96 in10.0 miSSW (210°)5.8 mphClear
6:53 PM88.0 °F70.0 °F55 %29.96 in10.0 miVariable3.5 mphPartly Cloudy
7:53 PM86.0 °F71.1 °F61 %29.95 in10.0 miSouth (170°)3.5 mphPartly Cloudy
8:53 PM82.9 °F72.0 °F69 %29.94 in10.0 miSouth (170°)4.6 mphClear
9:53 PM82.0 °F72.0 °F71 %29.95 in10.0 miSSE (160°)6.9 mphClear
10:53 PM81.0 °F71.1 °F72 %29.94 in10.0 miSouth (170°)6.9 mphClear
11:53 PM79.0 °F72.0 °F79 %29.93 in10.0 miSSE (160°)9.2 mphClear
Hourly data recorded from KCPS, located miles away from St. Louis - Gateway Arch, Missouri







STORIES FROM OUR PARTNERS